Time,TemperatureF,DewpointF,PressureIn,WindDirection,WindDirectionDegrees,WindSpeedMPH,WindSpeedGustMPH,Humidity,HourlyPrecipIn,Conditions,Clouds,dailyrainin,SoftwareType,DateUTC
2013-06-20 00:01:00,61.5,59.5,30.17,South,179,1.0,6.0,93,0.00,,,0.01,meteohub,2013-06-20 04:01:00,
2013-06-20 00:06:00,61.3,59.4,30.17,SSW,195,2.0,6.0,93,0.00,,,0.00,meteohub,2013-06-20 04:06:00,
2013-06-20 00:11:00,61.5,59.5,30.17,SW,222,2.0,6.0,93,0.00,,,0.00,meteohub,2013-06-20 04:11:00,
2013-06-20 00:16:00,61.5,59.5,30.17,SW,224,3.0,7.0,93,0.00,,,0.00,meteohub,2013-06-20 04:16:00,
2013-06-20 00:21:00,61.5,59.5,30.17,WSW,255,3.0,7.0,93,0.00,,,0.00,meteohub,2013-06-20 04:21:00,
2013-06-20 00:26:00,61.5,59.5,30.17,SW,233,3.0,8.0,93,0.00,,,0.00,meteohub,2013-06-20 04:26:00,
2013-06-20 00:31:00,61.3,59.4,30.17,SW,231,3.0,8.0,93,0.00,,,0.00,meteohub,2013-06-20 04:31:00,
2013-06-20 00:36:00,61.2,59.2,30.18,SW,225,3.0,8.0,93,0.00,,,0.00,meteohub,2013-06-20 04:36:00,
2013-06-20 00:41:00,61.2,59.2,30.18,WSW,250,2.0,8.0,93,0.00,,,0.00,meteohub,2013-06-20 04:41:00,
2013-06-20 00:46:00,61.2,59.2,30.18,SW,236,4.0,8.0,93,0.00,,,0.00,meteohub,2013-06-20 04:46:00,
2013-06-20 00:52:00,61.2,59.2,30.18,SW,231,5.0,8.0,93,0.00,,,0.00,meteohub,2013-06-20 04:52:00,
2013-06-20 00:57:00,61.0,59.0,30.18,SSW,211,6.0,7.0,93,0.00,,,0.00,meteohub,2013-06-20 04:57:00,
2013-06-20 01:02:00,61.0,58.6,30.19,SW,236,5.0,7.0,92,0.00,,,0.00,meteohub,2013-06-20 05:02:00,
2013-06-20 01:07:00,60.8,58.1,30.19,West,278,2.0,7.0,91,0.00,,,0.00,meteohub,2013-06-20 05:07:00,
2013-06-20 01:12:00,60.4,58.1,30.19,SW,235,4.0,7.0,92,0.00,,,0.00,meteohub,2013-06-20 05:12:00,
2013-06-20 01:17:00,60.4,58.1,30.19,SW,224,4.0,6.0,92,0.00,,,0.00,meteohub,2013-06-20 05:17:00,
2013-06-20 01:22:00,60.4,58.1,30.19,SW,224,4.0,6.0,92,0.00,,,0.00,meteohub,2013-06-20 05:22:00,
2013-06-20 01:27:00,60.4,58.1,30.19,WSW,252,4.0,7.0,92,0.00,,,0.00,meteohub,2013-06-20 05:27:00,
2013-06-20 01:32:00,60.4,58.1,30.19,SW,232,3.0,7.0,92,0.00,,,0.00,meteohub,2013-06-20 05:32:00,
2013-06-20 01:37:00,60.4,58.1,30.19,SW,228,2.0,8.0,92,0.00,,,0.00,meteohub,2013-06-20 05:37:00,
2013-06-20 01:42:00,60.6,58.3,30.19,SW,217,6.0,8.0,92,0.00,,,0.00,meteohub,2013-06-20 05:42:00,
2013-06-20 01:47:00,60.6,57.9,30.19,WSW,247,3.0,8.0,91,0.00,,,0.00,meteohub,2013-06-20 05:47:00,
2013-06-20 01:52:00,60.6,57.9,30.19,West,270,3.0,7.0,91,0.00,,,0.00,meteohub,2013-06-20 05:52:00,
2013-06-20 01:57:00,60.6,57.9,30.19,West,264,4.0,7.0,91,0.00,,,0.00,meteohub,2013-06-20 05:57:00,
2013-06-20 02:02:00,60.6,57.9,30.19,WSW,245,5.0,7.0,91,0.00,,,0.00,meteohub,2013-06-20 06:02:00,
2013-06-20 02:07:00,60.8,58.1,30.19,SW,219,6.0,8.0,91,0.00,,,0.00,meteohub,2013-06-20 06:07:00,
2013-06-20 02:12:00,61.2,58.5,30.19,SW,229,7.0,8.0,91,0.00,,,0.00,meteohub,2013-06-20 06:12:00,
2013-06-20 02:17:00,61.5,58.8,30.18,SW,221,6.0,10.0,91,0.00,,,0.00,meteohub,2013-06-20 06:17:00,
2013-06-20 02:22:00,61.5,58.6,30.19,SSW,211,4.0,11.0,90,0.00,,,0.00,meteohub,2013-06-20 06:22:00,
2013-06-20 02:27:00,61.9,59.0,30.18,SSW,201,10.0,12.0,90,0.00,,,0.00,meteohub,2013-06-20 06:27:00,
2013-06-20 02:32:00,62.1,58.8,30.18,SW,226,9.0,12.0,89,0.00,,,0.00,meteohub,2013-06-20 06:32:00,
2013-06-20 02:37:00,62.2,58.6,30.18,SSW,200,9.0,12.0,88,0.00,,,0.00,meteohub,2013-06-20 06:37:00,
2013-06-20 02:42:00,62.2,58.6,30.18,SSW,212,8.0,13.0,88,0.00,,,0.00,meteohub,2013-06-20 06:42:00,
2013-06-20 02:47:00,62.2,58.3,30.19,SW,221,5.0,13.0,87,0.00,,,0.00,meteohub,2013-06-20 06:47:00,
2013-06-20 02:52:00,62.1,58.1,30.19,WSW,245,2.0,13.0,87,0.00,,,0.00,meteohub,2013-06-20 06:52:00,
2013-06-20 02:57:00,61.5,57.9,30.19,SW,215,5.0,13.0,88,0.00,,,0.00,meteohub,2013-06-20 06:57:00,
2013-06-20 03:02:00,61.3,57.7,30.19,WSW,245,5.0,11.0,88,0.00,,,0.00,meteohub,2013-06-20 07:02:00,
2013-06-20 03:07:00,61.0,57.7,30.20,WSW,242,3.0,8.0,89,0.00,,,0.00,meteohub,2013-06-20 07:07:00,
2013-06-20 03:12:00,61.0,57.7,30.19,SW,225,3.0,8.0,89,0.00,,,0.00,meteohub,2013-06-20 07:12:00,
2013-06-20 03:17:00,60.8,57.9,30.19,WSW,245,3.0,8.0,90,0.00,,,0.00,meteohub,2013-06-20 07:17:00,
2013-06-20 03:22:00,60.6,57.7,30.19,SW,219,3.0,8.0,90,0.00,,,0.00,meteohub,2013-06-20 07:22:00,
2013-06-20 03:27:00,60.6,57.9,30.19,SSW,211,4.0,7.0,91,0.00,,,0.00,meteohub,2013-06-20 07:27:00,
2013-06-20 03:32:00,60.4,57.7,30.19,WSW,238,3.0,6.0,91,0.00,,,0.00,meteohub,2013-06-20 07:32:00,
2013-06-20 03:37:00,60.3,57.9,30.19,WSW,256,3.0,6.0,92,0.00,,,0.00,meteohub,2013-06-20 07:37:00,
2013-06-20 03:42:00,60.1,57.7,30.19,WSW,257,1.0,5.0,92,0.00,,,0.00,meteohub,2013-06-20 07:42:00,
2013-06-20 03:47:00,59.9,57.9,30.19,SW,229,3.0,4.0,93,0.00,,,0.00,meteohub,2013-06-20 07:47:00,
2013-06-20 03:52:00,59.9,57.9,30.19,SW,224,3.0,4.0,93,0.00,,,0.00,meteohub,2013-06-20 07:52:00,
2013-06-20 03:57:00,59.9,57.9,30.19,WSW,245,3.0,5.0,93,0.00,,,0.00,meteohub,2013-06-20 07:57:00,
2013-06-20 04:02:00,59.7,57.9,30.19,SSW,210,2.0,5.0,94,0.00,,,0.00,meteohub,2013-06-20 08:02:00,
2013-06-20 04:07:00,59.7,57.9,30.19,SW,231,3.0,5.0,94,0.00,,,0.00,meteohub,2013-06-20 08:07:00,
2013-06-20 04:12:00,59.5,58.1,30.19,WSW,239,3.0,4.0,95,0.00,,,0.00,meteohub,2013-06-20 08:12:00,
2013-06-20 04:17:00,59.5,58.1,30.20,SW,235,2.0,4.0,95,0.00,,,0.00,meteohub,2013-06-20 08:17:00,
2013-06-20 04:22:00,59.2,57.4,30.20,West,277,0.0,3.0,94,0.00,,,0.00,meteohub,2013-06-20 08:22:00,
2013-06-20 04:27:00,58.8,57.4,30.20,West,261,0.0,3.0,95,0.00,,,0.00,meteohub,2013-06-20 08:27:00,
2013-06-20 04:32:00,58.5,57.0,30.20,West,277,0.0,2.0,95,0.00,,,0.00,meteohub,2013-06-20 08:32:00,
2013-06-20 04:37:00,57.9,56.8,30.20,West,278,0.0,1.0,96,0.00,,,0.00,meteohub,2013-06-20 08:37:00,
2013-06-20 04:42:00,57.7,56.7,30.20,WNW,295,0.0,1.0,96,0.00,,,0.00,meteohub,2013-06-20 08:42:00,
2013-06-20 04:47:00,57.4,56.3,30.21,WNW,298,2.0,2.0,96,0.00,,,0.00,meteohub,2013-06-20 08:47:00,
2013-06-20 04:52:00,57.0,56.1,30.21,NW,304,2.0,2.0,97,0.00,,,0.00,meteohub,2013-06-20 08:52:00,
2013-06-20 04:57:00,56.8,55.9,30.21,WNW,296,0.0,3.0,97,0.00,,,0.00,meteohub,2013-06-20 08:57:00,
2013-06-20 05:02:00,56.8,55.9,30.21,WNW,297,0.0,3.0,97,0.00,,,0.00,meteohub,2013-06-20 09:02:00,
2013-06-20 05:07:00,56.7,55.8,30.21,WNW,297,0.0,3.0,97,0.00,,,0.00,meteohub,2013-06-20 09:07:00,
2013-06-20 05:12:00,56.5,55.6,30.21,WNW,297,0.0,2.0,97,0.00,,,0.00,meteohub,2013-06-20 09:12:00,
2013-06-20 05:17:00,56.5,55.6,30.22,WNW,297,0.0,0.0,97,0.00,,,0.00,meteohub,2013-06-20 09:17:00,
2013-06-20 05:22:00,56.1,55.2,30.22,WNW,295,0.0,0.0,97,0.00,,,0.00,meteohub,2013-06-20 09:22:00,
2013-06-20 05:27:00,56.1,55.2,30.22,WNW,295,0.0,1.0,97,0.00,,,0.00,meteohub,2013-06-20 09:27:00,
2013-06-20 05:32:00,56.1,55.2,30.22,WNW,295,0.0,1.0,97,0.00,,,0.00,meteohub,2013-06-20 09:32:00,
2013-06-20 05:37:00,56.5,55.6,30.22,WNW,295,0.0,1.0,97,0.00,,,0.00,meteohub,2013-06-20 09:37:00,
2013-06-20 05:42:00,56.8,55.9,30.22,WNW,295,0.0,0.0,97,0.00,,,0.00,meteohub,2013-06-20 09:42:00,
2013-06-20 05:47:00,57.0,56.1,30.22,WNW,295,0.0,0.0,97,0.00,,,0.00,meteohub,2013-06-20 09:47:00,
2013-06-20 05:52:00,57.0,56.1,30.23,WNW,293,0.0,0.0,97,0.00,,,0.00,meteohub,2013-06-20 09:52:00,
2013-06-20 05:56:00,57.0,56.1,30.23,WNW,289,0.0,1.0,97,0.00,,,0.00,meteohub,2013-06-20 09:56:00,
2013-06-20 06:02:00,57.0,55.9,30.24,WSW,249,0.0,1.0,96,0.00,,,0.00,meteohub,2013-06-20 10:02:00,
2013-06-20 06:07:00,56.8,55.9,30.24,West,265,1.0,1.0,97,0.00,,,0.00,meteohub,2013-06-20 10:07:00,
2013-06-20 06:12:00,56.8,55.9,30.24,NNW,336,2.0,2.0,97,0.00,,,0.00,meteohub,2013-06-20 10:12:00,
2013-06-20 06:17:00,56.5,55.6,30.25,WNW,290,5.0,5.0,97,0.00,,,0.00,meteohub,2013-06-20 10:17:00,
2013-06-20 06:22:00,56.3,55.8,30.24,WNW,293,2.0,5.0,98,0.00,,,0.00,meteohub,2013-06-20 10:22:00,
2013-06-20 06:27:00,56.3,55.8,30.24,WNW,293,1.0,5.0,98,0.00,,,0.00,meteohub,2013-06-20 10:27:00,
2013-06-20 06:32:00,56.5,55.9,30.25,WNW,294,0.0,5.0,98,0.00,,,0.00,meteohub,2013-06-20 10:32:00,
2013-06-20 06:37:00,56.8,56.3,30.25,NW,325,0.0,5.0,98,0.00,,,0.00,meteohub,2013-06-20 10:37:00,
2013-06-20 06:42:00,57.2,56.7,30.25,WNW,293,0.0,3.0,98,0.00,,,0.00,meteohub,2013-06-20 10:42:00,
2013-06-20 06:47:00,57.4,56.8,30.25,West,276,0.0,3.0,98,0.00,,,0.00,meteohub,2013-06-20 10:47:00,
2013-06-20 06:52:00,57.7,57.2,30.25,WNW,286,3.0,3.0,98,0.00,,,0.00,meteohub,2013-06-20 10:52:00,
2013-06-20 06:57:00,57.9,57.4,30.25,West,281,0.0,3.0,98,0.00,,,0.00,meteohub,2013-06-20 10:57:00,
2013-06-20 07:02:00,58.1,57.2,30.25,WNW,288,1.0,3.0,97,0.00,,,0.00,meteohub,2013-06-20 11:02:00,
2013-06-20 07:07:00,58.5,57.6,30.25,WSW,238,0.0,3.0,97,0.00,,,0.00,meteohub,2013-06-20 11:07:00,
2013-06-20 07:12:00,59.0,58.1,30.25,WNW,287,0.0,3.0,97,0.00,,,0.00,meteohub,2013-06-20 11:12:00,
2013-06-20 07:17:00,59.2,58.1,30.26,WNW,288,0.0,3.0,96,0.00,,,0.00,meteohub,2013-06-20 11:17:00,
2013-06-20 07:22:00,59.9,58.8,30.26,WNW,287,2.0,3.0,96,0.00,,,0.00,meteohub,2013-06-20 11:22:00,
2013-06-20 07:27:00,59.7,57.9,30.26,WNW,291,4.0,4.0,94,0.00,,,0.00,meteohub,2013-06-20 11:27:00,
2013-06-20 07:32:00,59.7,57.9,30.26,WNW,283,2.0,4.0,94,0.00,,,0.00,meteohub,2013-06-20 11:32:00,
2013-06-20 07:37:00,60.1,58.3,30.27,WNW,302,1.0,4.0,94,0.00,,,0.00,meteohub,2013-06-20 11:37:00,
2013-06-20 07:42:00,60.4,58.1,30.26,South,169,0.0,4.0,92,0.00,,,0.00,meteohub,2013-06-20 11:42:00,
2013-06-20 07:47:00,61.2,58.8,30.27,SW,214,0.0,4.0,92,0.00,,,0.00,meteohub,2013-06-20 11:47:00,
2013-06-20 07:52:00,61.2,58.3,30.27,WNW,285,0.0,3.0,90,0.00,,,0.00,meteohub,2013-06-20 11:52:00,
2013-06-20 07:57:00,61.3,58.5,30.27,NW,318,0.0,2.0,90,0.00,,,0.00,meteohub,2013-06-20 11:57:00,
2013-06-20 08:02:00,61.9,59.0,30.26,SSE,155,0.0,2.0,90,0.00,,,0.00,meteohub,2013-06-20 12:02:00,
2013-06-20 08:07:00,63.0,59.4,30.26,SSW,208,0.0,2.0,88,0.00,,,0.00,meteohub,2013-06-20 12:07:00,
2013-06-20 08:12:00,63.3,59.7,30.26,WSW,253,2.0,2.0,88,0.00,,,0.00,meteohub,2013-06-20 12:12:00,
2013-06-20 08:17:00,63.5,59.5,30.27,NW,312,0.0,2.0,87,0.00,,,0.00,meteohub,2013-06-20 12:17:00,
2013-06-20 08:22:00,63.9,59.5,30.27,South,173,0.0,2.0,86,0.00,,,0.00,meteohub,2013-06-20 12:22:00,
2013-06-20 08:27:00,64.9,59.7,30.27,NNW,345,1.0,3.0,83,0.00,,,0.00,meteohub,2013-06-20 12:27:00,
2013-06-20 08:32:00,65.7,60.1,30.27,NW,317,1.0,3.0,82,0.00,,,0.00,meteohub,2013-06-20 12:32:00,
2013-06-20 08:37:00,65.5,59.2,30.27,North,359,1.0,2.0,80,0.00,,,0.00,meteohub,2013-06-20 12:37:00,
2013-06-20 08:42:00,66.0,60.1,30.27,NW,317,0.0,3.0,81,0.00,,,0.00,meteohub,2013-06-20 12:42:00,
2013-06-20 08:47:00,66.4,59.7,30.27,West,260,1.0,3.0,79,0.00,,,0.00,meteohub,2013-06-20 12:47:00,
2013-06-20 08:52:00,66.6,59.9,30.27,West,277,0.0,3.0,79,0.00,,,0.00,meteohub,2013-06-20 12:52:00,
2013-06-20 08:57:00,67.5,60.4,30.27,SW,214,2.0,3.0,78,0.00,,,0.00,meteohub,2013-06-20 12:57:00,
2013-06-20 09:02:00,67.5,60.4,30.27,SSW,210,0.0,3.0,78,0.00,,,0.00,meteohub,2013-06-20 13:02:00,
2013-06-20 09:07:00,68.0,60.4,30.27,South,181,0.0,3.0,77,0.00,,,0.00,meteohub,2013-06-20 13:07:00,
2013-06-20 09:12:00,68.4,60.1,30.27,North,6,0.0,3.0,75,0.00,,,0.00,meteohub,2013-06-20 13:12:00,
2013-06-20 09:17:00,68.4,60.4,30.27,SSW,205,1.0,5.0,76,0.00,,,0.00,meteohub,2013-06-20 13:17:00,
2013-06-20 09:22:00,68.7,60.1,30.27,WNW,283,2.0,5.0,74,0.00,,,0.00,meteohub,2013-06-20 13:22:00,
2013-06-20 09:27:00,68.4,60.4,30.27,WNW,284,1.0,5.0,76,0.00,,,0.00,meteohub,2013-06-20 13:27:00,
2013-06-20 09:32:00,68.9,61.0,30.27,NNW,336,3.0,4.0,76,0.00,,,0.00,meteohub,2013-06-20 13:32:00,
2013-06-20 09:37:00,69.6,59.4,30.27,West,276,0.0,4.0,70,0.00,,,0.00,meteohub,2013-06-20 13:37:00,
2013-06-20 09:42:00,69.6,59.7,30.27,SSE,167,1.0,4.0,71,0.00,,,0.00,meteohub,2013-06-20 13:42:00,
2013-06-20 09:47:00,70.3,59.7,30.27,WNW,303,4.0,4.0,69,0.00,,,0.00,meteohub,2013-06-20 13:47:00,
2013-06-20 09:52:00,70.2,58.3,30.27,WNW,288,4.0,5.0,66,0.00,,,0.00,meteohub,2013-06-20 13:52:00,
2013-06-20 09:57:00,70.5,59.0,30.27,NNW,336,0.0,5.0,67,0.00,,,0.00,meteohub,2013-06-20 13:57:00,
2013-06-20 10:02:00,71.4,59.0,30.27,West,263,0.0,5.0,65,0.00,,,0.00,meteohub,2013-06-20 14:02:00,
2013-06-20 10:07:00,72.0,58.6,30.27,South,179,4.0,4.0,63,0.00,,,0.00,meteohub,2013-06-20 14:07:00,
2013-06-20 10:12:00,72.1,58.5,30.27,South,169,3.0,5.0,62,0.00,,,0.00,meteohub,2013-06-20 14:12:00,
2013-06-20 10:17:00,72.3,57.2,30.27,SSW,211,3.0,5.0,59,0.00,,,0.00,meteohub,2013-06-20 14:17:00,
2013-06-20 10:22:00,72.7,56.5,30.27,West,273,2.0,5.0,57,0.00,,,0.00,meteohub,2013-06-20 14:22:00,
2013-06-20 10:27:00,73.0,55.9,30.27,West,269,1.0,5.0,55,0.00,,,0.00,meteohub,2013-06-20 14:27:00,
2013-06-20 10:32:00,72.7,57.0,30.27,SSE,147,4.0,6.0,58,0.00,,,0.00,meteohub,2013-06-20 14:32:00,
2013-06-20 10:37:00,73.0,55.9,30.27,SSW,195,1.0,6.0,55,0.00,,,0.00,meteohub,2013-06-20 14:37:00,
2013-06-20 10:42:00,73.8,54.0,30.27,SW,229,4.0,9.0,50,0.00,,,0.00,meteohub,2013-06-20 14:42:00,
2013-06-20 10:47:00,72.5,57.4,30.27,SSW,194,4.0,9.0,59,0.00,,,0.00,meteohub,2013-06-20 14:47:00,
2013-06-20 10:52:00,71.6,60.4,30.27,SSW,200,8.0,9.0,68,0.00,,,0.00,meteohub,2013-06-20 14:52:00,
2013-06-20 10:57:00,70.3,60.1,30.27,SSW,193,8.0,9.0,70,0.00,,,0.00,meteohub,2013-06-20 14:57:00,
2013-06-20 11:02:00,70.2,60.3,30.27,SSW,200,7.0,9.0,71,0.00,,,0.00,meteohub,2013-06-20 15:02:00,
2013-06-20 11:07:00,69.8,59.2,30.27,SSW,208,5.0,9.0,69,0.00,,,0.00,meteohub,2013-06-20 15:07:00,
2013-06-20 11:12:00,69.6,59.7,30.27,South,179,6.0,8.0,71,0.00,,,0.00,meteohub,2013-06-20 15:12:00,
2013-06-20 11:17:00,69.6,60.3,30.27,South,191,6.0,10.0,72,0.00,,,0.00,meteohub,2013-06-20 15:17:00,
2013-06-20 11:22:00,69.8,61.2,30.27,SSW,194,7.0,10.0,74,0.00,,,0.00,meteohub,2013-06-20 15:22:00,
2013-06-20 11:27:00,69.6,60.6,30.27,SSW,212,6.0,10.0,73,0.00,,,0.00,meteohub,2013-06-20 15:27:00,
2013-06-20 11:32:00,69.3,60.6,30.27,SSW,200,7.0,10.0,74,0.00,,,0.00,meteohub,2013-06-20 15:32:00,
2013-06-20 11:37:00,69.4,60.4,30.27,SSW,208,8.0,11.0,73,0.00,,,0.00,meteohub,2013-06-20 15:37:00,
2013-06-20 11:42:00,69.4,60.4,30.27,SW,216,9.0,12.0,73,0.00,,,0.00,meteohub,2013-06-20 15:42:00,
2013-06-20 11:47:00,69.6,60.3,30.27,South,186,9.0,12.0,72,0.00,,,0.00,meteohub,2013-06-20 15:47:00,
2013-06-20 11:52:00,69.6,59.0,30.27,SSW,195,11.0,14.0,69,0.00,,,0.00,meteohub,2013-06-20 15:52:00,
2013-06-20 11:57:00,69.6,58.1,30.27,SSW,210,11.0,14.0,67,0.00,,,0.00,meteohub,2013-06-20 15:57:00,
2013-06-20 12:02:00,69.6,58.1,30.27,South,179,10.0,14.0,67,0.00,,,0.00,meteohub,2013-06-20 16:02:00,
2013-06-20 12:07:00,69.6,59.4,30.27,SSW,200,12.0,14.0,70,0.00,,,0.00,meteohub,2013-06-20 16:07:00,
2013-06-20 12:12:00,69.3,59.9,30.27,SSW,194,11.0,14.0,72,0.00,,,0.00,meteohub,2013-06-20 16:12:00,
2013-06-20 12:17:00,69.3,59.5,30.28,South,191,10.0,14.0,71,0.00,,,0.00,meteohub,2013-06-20 16:17:00,
2013-06-20 12:22:00,69.3,59.5,30.27,South,174,10.0,14.0,71,0.00,,,0.00,meteohub,2013-06-20 16:22:00,
2013-06-20 12:27:00,69.8,58.8,30.27,South,187,8.0,13.0,68,0.00,,,0.00,meteohub,2013-06-20 16:27:00,
2013-06-20 12:32:00,70.0,58.1,30.27,SSE,161,8.0,13.0,66,0.00,,,0.00,meteohub,2013-06-20 16:32:00,
2013-06-20 12:37:00,70.3,58.1,30.27,SSW,208,10.0,13.0,65,0.00,,,0.00,meteohub,2013-06-20 16:37:00,
2013-06-20 12:42:00,70.7,57.9,30.27,SSW,197,8.0,13.0,64,0.00,,,0.00,meteohub,2013-06-20 16:42:00,
2013-06-20 12:47:00,71.2,57.6,30.27,South,179,7.0,13.0,62,0.00,,,0.00,meteohub,2013-06-20 16:47:00,
2013-06-20 12:52:00,71.6,57.0,30.27,SSW,195,8.0,11.0,60,0.00,,,0.00,meteohub,2013-06-20 16:52:00,
2013-06-20 12:57:00,72.0,54.3,30.27,SSW,197,11.0,11.0,54,0.00,,,0.00,meteohub,2013-06-20 16:57:00,
2013-06-20 13:02:00,72.1,54.5,30.27,South,187,11.0,14.0,54,0.00,,,0.00,meteohub,2013-06-20 17:02:00,
2013-06-20 13:07:00,72.3,54.7,30.27,SSW,201,8.0,14.0,54,0.00,,,0.00,meteohub,2013-06-20 17:07:00,
2013-06-20 13:12:00,72.7,54.5,30.27,SW,221,11.0,14.0,53,0.00,,,0.00,meteohub,2013-06-20 17:12:00,
2013-06-20 13:17:00,72.9,52.5,30.27,SW,215,9.0,14.0,49,0.00,,,0.00,meteohub,2013-06-20 17:17:00,
2013-06-20 13:22:00,72.9,53.1,30.27,SSW,193,12.0,13.0,50,0.00,,,0.00,meteohub,2013-06-20 17:22:00,
2013-06-20 13:27:00,73.0,53.2,30.27,SSW,207,11.0,13.0,50,0.00,,,0.00,meteohub,2013-06-20 17:27:00,
2013-06-20 13:32:00,73.2,52.9,30.27,SW,216,12.0,13.0,49,0.00,,,0.00,meteohub,2013-06-20 17:32:00,
2013-06-20 13:37:00,73.2,56.1,30.27,South,181,7.0,15.0,55,0.00,,,0.00,meteohub,2013-06-20 17:37:00,
2013-06-20 13:42:00,72.1,58.5,30.27,SSW,195,12.0,15.0,62,0.00,,,0.00,meteohub,2013-06-20 17:42:00,
2013-06-20 13:47:00,72.0,56.3,30.27,SW,219,11.0,16.0,58,0.00,,,0.00,meteohub,2013-06-20 17:47:00,
2013-06-20 13:52:00,72.3,54.1,30.27,SSW,208,11.0,16.0,53,0.00,,,0.00,meteohub,2013-06-20 17:52:00,
2013-06-20 13:57:00,72.3,54.1,30.26,SW,218,12.0,17.0,53,0.00,,,0.00,meteohub,2013-06-20 17:57:00,
2013-06-20 14:02:00,72.0,54.9,30.26,SSW,211,13.0,18.0,55,0.00,,,0.00,meteohub,2013-06-20 18:02:00,
2013-06-20 14:07:00,72.1,55.0,30.26,SW,215,7.0,18.0,55,0.00,,,0.00,meteohub,2013-06-20 18:07:00,
2013-06-20 14:12:00,72.7,55.0,30.26,SW,217,9.0,18.0,54,0.00,,,0.00,meteohub,2013-06-20 18:12:00,
2013-06-20 14:17:00,72.7,52.3,30.26,SSW,200,12.0,17.0,49,0.00,,,0.00,meteohub,2013-06-20 18:17:00,
2013-06-20 14:22:00,72.7,52.3,30.26,SW,217,9.0,17.0,49,0.00,,,0.00,meteohub,2013-06-20 18:22:00,
2013-06-20 14:27:00,72.9,53.1,30.26,South,186,12.0,17.0,50,0.00,,,0.00,meteohub,2013-06-20 18:27:00,
2013-06-20 14:32:00,72.9,51.4,30.26,SW,219,16.0,16.0,47,0.00,,,0.00,meteohub,2013-06-20 18:32:00,
2013-06-20 14:37:00,72.9,53.6,30.27,SSW,205,14.0,18.0,51,0.00,,,0.00,meteohub,2013-06-20 18:37:00,
2013-06-20 14:42:00,72.9,55.2,30.27,SW,231,12.0,18.0,54,0.00,,,0.00,meteohub,2013-06-20 18:42:00,
2013-06-20 14:47:00,72.1,59.7,30.27,SSW,207,13.0,18.0,65,0.00,,,0.00,meteohub,2013-06-20 18:47:00,
2013-06-20 14:52:00,71.4,60.3,30.27,South,183,15.0,17.0,68,0.00,,,0.00,meteohub,2013-06-20 18:52:00,
2013-06-20 14:57:00,70.5,61.0,30.27,South,191,12.0,17.0,72,0.00,,,0.00,meteohub,2013-06-20 18:57:00,
2013-06-20 15:02:00,70.0,61.3,30.27,South,190,14.0,18.0,74,0.00,,,0.00,meteohub,2013-06-20 19:02:00,
2013-06-20 15:07:00,69.3,62.1,30.27,South,176,14.0,20.0,78,0.00,,,0.00,meteohub,2013-06-20 19:07:00,
2013-06-20 15:12:00,68.7,61.5,30.27,South,181,15.0,20.0,78,0.00,,,0.00,meteohub,2013-06-20 19:12:00,
2013-06-20 15:17:00,68.4,61.2,30.27,SSW,203,14.0,20.0,78,0.00,,,0.00,meteohub,2013-06-20 19:17:00,
2013-06-20 15:22:00,68.5,61.7,30.27,South,187,14.0,18.0,79,0.00,,,0.00,meteohub,2013-06-20 19:22:00,
2013-06-20 15:27:00,68.5,61.7,30.27,SSW,201,13.0,18.0,79,0.00,,,0.00,meteohub,2013-06-20 19:27:00,
2013-06-20 15:32:00,68.5,61.0,30.27,SW,214,10.0,17.0,77,0.00,,,0.00,meteohub,2013-06-20 19:32:00,
2013-06-20 15:37:00,68.5,61.3,30.26,South,184,12.0,17.0,78,0.00,,,0.00,meteohub,2013-06-20 19:37:00,
2013-06-20 15:42:00,68.7,61.2,30.27,SW,214,13.0,17.0,77,0.00,,,0.00,meteohub,2013-06-20 19:42:00,
2013-06-20 15:47:00,68.7,61.2,30.26,SSW,207,11.0,17.0,77,0.00,,,0.00,meteohub,2013-06-20 19:47:00,
2013-06-20 15:52:00,69.1,60.4,30.27,SSW,203,10.0,17.0,74,0.00,,,0.00,meteohub,2013-06-20 19:52:00,
2013-06-20 15:57:00,69.3,59.9,30.26,South,190,11.0,17.0,72,0.00,,,0.00,meteohub,2013-06-20 19:57:00,
2013-06-20 16:02:00,69.6,59.0,30.27,SSW,210,13.0,17.0,69,0.00,,,0.00,meteohub,2013-06-20 20:02:00,
2013-06-20 16:07:00,70.2,59.5,30.27,South,181,11.0,16.0,69,0.00,,,0.00,meteohub,2013-06-20 20:07:00,
2013-06-20 16:12:00,70.0,61.7,30.27,SSW,210,11.0,15.0,75,0.00,,,0.00,meteohub,2013-06-20 20:12:00,
2013-06-20 16:17:00,69.6,61.0,30.27,SW,228,9.0,15.0,74,0.00,,,0.00,meteohub,2013-06-20 20:17:00,
2013-06-20 16:22:00,69.6,60.6,30.27,South,191,10.0,16.0,73,0.00,,,0.00,meteohub,2013-06-20 20:22:00,
2013-06-20 16:27:00,69.4,60.8,30.27,SSW,204,14.0,16.0,74,0.00,,,0.00,meteohub,2013-06-20 20:27:00,
2013-06-20 16:32:00,69.3,60.6,30.27,South,174,13.0,16.0,74,0.00,,,0.00,meteohub,2013-06-20 20:32:00,
2013-06-20 16:37:00,69.3,60.3,30.27,SSW,195,12.0,16.0,73,0.00,,,0.00,meteohub,2013-06-20 20:37:00,
2013-06-20 16:41:00,69.1,59.7,30.27,SSW,194,12.0,15.0,72,0.00,,,0.00,meteohub,2013-06-20 20:41:00,
2013-06-20 16:47:00,69.3,59.9,30.27,SSW,201,9.0,15.0,72,0.00,,,0.00,meteohub,2013-06-20 20:47:00,
2013-06-20 16:52:00,69.4,59.2,30.26,SSW,210,9.0,15.0,70,0.00,,,0.00,meteohub,2013-06-20 20:52:00,
2013-06-20 16:57:00,69.6,59.0,30.26,SSW,207,12.0,14.0,69,0.00,,,0.00,meteohub,2013-06-20 20:57:00,
2013-06-20 17:02:00,69.4,59.2,30.26,SW,214,14.0,14.0,70,0.00,,,0.00,meteohub,2013-06-20 21:02:00,
2013-06-20 17:07:00,69.1,59.7,30.26,SSW,193,13.0,15.0,72,0.00,,,0.00,meteohub,2013-06-20 21:07:00,
2013-06-20 17:12:00,68.9,59.9,30.26,SW,219,14.0,15.0,73,0.00,,,0.00,meteohub,2013-06-20 21:12:00,
2013-06-20 17:17:00,68.7,59.7,30.26,SSW,212,10.0,16.0,73,0.00,,,0.00,meteohub,2013-06-20 21:17:00,
2013-06-20 17:22:00,68.5,59.2,30.26,SW,221,12.0,17.0,72,0.00,,,0.00,meteohub,2013-06-20 21:22:00,
2013-06-20 17:27:00,68.2,58.8,30.26,SSW,210,9.0,17.0,72,0.00,,,0.00,meteohub,2013-06-20 21:27:00,
2013-06-20 17:32:00,68.0,59.0,30.26,South,186,13.0,17.0,73,0.00,,,0.00,meteohub,2013-06-20 21:32:00,
2013-06-20 17:37:00,67.8,59.5,30.26,SW,219,11.0,17.0,75,0.00,,,0.00,meteohub,2013-06-20 21:37:00,
2013-06-20 17:42:00,67.8,59.9,30.26,SSW,205,7.0,16.0,76,0.00,,,0.00,meteohub,2013-06-20 21:42:00,
2013-06-20 17:47:00,67.8,59.9,30.26,SSW,195,7.0,15.0,76,0.00,,,0.00,meteohub,2013-06-20 21:47:00,
2013-06-20 17:52:00,67.6,59.7,30.26,SSW,205,10.0,13.0,76,0.00,,,0.00,meteohub,2013-06-20 21:52:00,
2013-06-20 17:57:00,67.6,60.6,30.26,SSW,200,10.0,14.0,78,0.00,,,0.00,meteohub,2013-06-20 21:57:00,
2013-06-20 18:02:00,67.6,60.6,30.26,SSW,204,8.0,14.0,78,0.00,,,0.00,meteohub,2013-06-20 22:02:00,
2013-06-20 18:07:00,67.5,60.1,30.27,SSW,205,6.0,14.0,77,0.00,,,0.00,meteohub,2013-06-20 22:07:00,
2013-06-20 18:12:00,67.3,60.3,30.27,SSW,212,13.0,16.0,78,0.00,,,0.00,meteohub,2013-06-20 22:12:00,
2013-06-20 18:17:00,67.1,60.1,30.27,SW,228,12.0,16.0,78,0.00,,,0.00,meteohub,2013-06-20 22:17:00,
2013-06-20 18:22:00,67.1,60.1,30.27,SSW,199,8.0,16.0,78,0.00,,,0.00,meteohub,2013-06-20 22:22:00,
2013-06-20 18:27:00,67.1,60.1,30.27,SSW,211,12.0,15.0,78,0.00,,,0.00,meteohub,2013-06-20 22:27:00,
2013-06-20 18:32:00,66.9,59.5,30.27,SSW,194,12.0,15.0,77,0.00,,,0.00,meteohub,2013-06-20 22:32:00,
2013-06-20 18:37:00,66.9,59.9,30.27,SSW,207,6.0,13.0,78,0.00,,,0.00,meteohub,2013-06-20 22:37:00,
2013-06-20 18:42:00,66.9,59.9,30.27,SSW,212,10.0,15.0,78,0.00,,,0.00,meteohub,2013-06-20 22:42:00,
2013-06-20 18:47:00,66.7,59.7,30.27,SW,214,12.0,17.0,78,0.00,,,0.00,meteohub,2013-06-20 22:47:00,
2013-06-20 18:52:00,66.7,59.4,30.27,SSW,212,11.0,17.0,77,0.00,,,0.00,meteohub,2013-06-20 22:52:00,
2013-06-20 18:57:00,66.6,59.5,30.27,SW,232,13.0,17.0,78,0.00,,,0.00,meteohub,2013-06-20 22:57:00,
2013-06-20 19:01:00,66.6,59.5,30.27,SSW,204,12.0,14.0,78,0.00,,,0.00,meteohub,2013-06-20 23:01:00,
2013-06-20 19:07:00,66.4,59.0,30.27,SW,226,10.0,14.0,77,0.00,,,0.00,meteohub,2013-06-20 23:07:00,
2013-06-20 19:12:00,66.6,58.8,30.28,SSW,205,7.0,14.0,76,0.00,,,0.00,meteohub,2013-06-20 23:12:00,
2013-06-20 19:17:00,66.6,58.1,30.28,SW,231,4.0,14.0,74,0.00,,,0.00,meteohub,2013-06-20 23:17:00,
2013-06-20 19:22:00,66.6,58.1,30.28,SSW,210,3.0,13.0,74,0.00,,,0.00,meteohub,2013-06-20 23:22:00,
2013-06-20 19:27:00,66.7,57.4,30.28,SSW,212,3.0,12.0,72,0.00,,,0.00,meteohub,2013-06-20 23:27:00,
2013-06-20 19:32:00,66.6,57.2,30.28,WSW,243,10.0,12.0,72,0.00,,,0.00,meteohub,2013-06-20 23:32:00,
2013-06-20 19:37:00,66.6,57.6,30.28,SW,228,5.0,13.0,73,0.00,,,0.00,meteohub,2013-06-20 23:37:00,
2013-06-20 19:42:00,66.4,56.7,30.28,SSW,198,4.0,13.0,71,0.00,,,0.00,meteohub,2013-06-20 23:42:00,
2013-06-20 19:47:00,66.2,57.2,30.28,SW,215,9.0,11.0,73,0.00,,,0.00,meteohub,2013-06-20 23:47:00,
2013-06-20 19:52:00,66.0,57.6,30.28,SSW,195,4.0,11.0,74,0.00,,,0.00,meteohub,2013-06-20 23:52:00,
2013-06-20 19:57:00,65.8,57.4,30.28,SSW,193,6.0,11.0,74,0.00,,,0.00,meteohub,2013-06-20 23:57:00,
2013-06-20 20:02:00,65.7,57.6,30.28,SSW,195,9.0,12.0,75,0.00,,,0.00,meteohub,2013-06-21 00:02:00,
2013-06-20 20:07:00,65.1,57.4,30.28,SW,228,11.0,15.0,76,0.00,,,0.00,meteohub,2013-06-21 00:07:00,
2013-06-20 20:12:00,64.8,58.1,30.28,SSW,201,12.0,15.0,79,0.00,,,0.00,meteohub,2013-06-21 00:12:00,
2013-06-20 20:17:00,64.6,58.3,30.28,SW,214,11.0,16.0,80,0.00,,,0.00,meteohub,2013-06-21 00:17:00,
2013-06-20 20:22:00,64.2,58.3,30.28,SSW,205,10.0,16.0,81,0.00,,,0.00,meteohub,2013-06-21 00:22:00,
2013-06-20 20:27:00,64.0,58.5,30.28,SW,225,11.0,16.0,82,0.00,,,0.00,meteohub,2013-06-21 00:27:00,
2013-06-20 20:32:00,63.9,58.6,30.29,SSW,212,8.0,14.0,83,0.00,,,0.00,meteohub,2013-06-21 00:32:00,
2013-06-20 20:37:00,63.9,58.6,30.29,WSW,250,6.0,13.0,83,0.00,,,0.00,meteohub,2013-06-21 00:37:00,
2013-06-20 20:42:00,63.7,58.8,30.29,WSW,239,6.0,13.0,84,0.00,,,0.00,meteohub,2013-06-21 00:42:00,
2013-06-20 20:47:00,63.3,58.5,30.29,SW,236,3.0,13.0,84,0.00,,,0.00,meteohub,2013-06-21 00:47:00,
2013-06-20 20:52:00,63.3,59.0,30.29,SW,226,5.0,12.0,86,0.00,,,0.00,meteohub,2013-06-21 00:52:00,
2013-06-20 20:57:00,63.1,58.8,30.29,SW,219,7.0,11.0,86,0.00,,,0.00,meteohub,2013-06-21 00:57:00,
2013-06-20 21:02:00,63.1,58.8,30.29,SSW,194,7.0,11.0,86,0.00,,,0.00,meteohub,2013-06-21 01:02:00,
2013-06-20 21:07:00,63.1,59.2,30.29,South,188,5.0,11.0,87,0.00,,,0.00,meteohub,2013-06-21 01:07:00,
2013-06-20 21:12:00,63.1,59.2,30.29,SSW,208,8.0,11.0,87,0.00,,,0.00,meteohub,2013-06-21 01:12:00,
2013-06-20 21:17:00,63.0,59.0,30.29,SW,214,5.0,13.0,87,0.00,,,0.00,meteohub,2013-06-21 01:17:00,
2013-06-20 21:22:00,63.0,59.0,30.29,SW,235,6.0,13.0,87,0.00,,,0.00,meteohub,2013-06-21 01:22:00,
2013-06-20 21:27:00,63.0,59.0,30.30,West,265,7.0,13.0,87,0.00,,,0.00,meteohub,2013-06-21 01:27:00,
2013-06-20 21:32:00,63.0,59.0,30.30,SSW,204,7.0,10.0,87,0.00,,,0.00,meteohub,2013-06-21 01:32:00,
2013-06-20 21:37:00,62.8,59.2,30.30,SSW,210,4.0,10.0,88,0.00,,,0.00,meteohub,2013-06-21 01:37:00,
2013-06-20 21:42:00,62.8,58.8,30.30,SSW,198,5.0,10.0,87,0.00,,,0.00,meteohub,2013-06-21 01:42:00,
2013-06-20 21:47:00,62.8,59.2,30.30,SSW,208,9.0,9.0,88,0.00,,,0.00,meteohub,2013-06-21 01:47:00,
2013-06-20 21:52:00,62.8,59.2,30.30,SSW,210,5.0,10.0,88,0.00,,,0.00,meteohub,2013-06-21 01:52:00,
2013-06-20 21:57:00,62.6,59.0,30.30,SSW,210,6.0,10.0,88,0.00,,,0.00,meteohub,2013-06-21 01:57:00,
2013-06-20 22:02:00,62.6,59.4,30.30,SW,217,3.0,10.0,89,0.00,,,0.00,meteohub,2013-06-21 02:02:00,
2013-06-20 22:07:00,62.4,59.2,30.30,SW,215,5.0,9.0,89,0.00,,,0.00,meteohub,2013-06-21 02:07:00,
2013-06-20 22:12:00,62.4,59.4,30.30,SSW,208,4.0,8.0,90,0.00,,,0.00,meteohub,2013-06-21 02:12:00,
2013-06-20 22:17:00,62.2,59.2,30.30,WSW,256,2.0,8.0,90,0.00,,,0.00,meteohub,2013-06-21 02:17:00,
2013-06-20 22:22:00,62.2,59.2,30.30,SW,221,5.0,9.0,90,0.00,,,0.00,meteohub,2013-06-21 02:22:00,
2013-06-20 22:27:00,62.1,59.4,30.30,SW,225,4.0,9.0,91,0.00,,,0.00,meteohub,2013-06-21 02:27:00,
2013-06-20 22:32:00,62.1,59.7,30.30,WSW,238,6.0,9.0,92,0.00,,,0.00,meteohub,2013-06-21 02:32:00,
2013-06-20 22:37:00,62.1,59.7,30.30,SW,222,6.0,9.0,92,0.00,,,0.00,meteohub,2013-06-21 02:37:00,
2013-06-20 22:42:00,62.1,60.1,30.30,SSW,198,6.0,9.0,93,0.00,,,0.00,meteohub,2013-06-21 02:42:00,
2013-06-20 22:47:00,62.1,60.3,30.30,SW,231,6.0,9.0,94,0.00,,,0.00,meteohub,2013-06-21 02:47:00,
2013-06-20 22:52:00,62.1,60.3,30.30,South,169,4.0,9.0,94,0.00,,,0.00,meteohub,2013-06-21 02:52:00,
2013-06-20 22:57:00,62.1,60.3,30.30,South,183,8.0,10.0,94,0.00,,,0.00,meteohub,2013-06-21 02:57:00,
2013-06-20 23:02:00,62.2,60.4,30.30,SW,222,6.0,10.0,94,0.00,,,0.00,meteohub,2013-06-21 03:02:00,
2013-06-20 23:07:00,62.2,60.4,30.30,SW,226,9.0,10.0,94,0.00,,,0.00,meteohub,2013-06-21 03:07:00,
2013-06-20 23:12:00,62.1,60.3,30.30,SW,229,8.0,12.0,94,0.00,,,0.00,meteohub,2013-06-21 03:12:00,
2013-06-20 23:17:00,62.1,60.3,30.30,South,188,5.0,12.0,94,0.00,,,0.00,meteohub,2013-06-21 03:17:00,
2013-06-20 23:22:00,62.1,60.3,30.30,SW,230,4.0,12.0,94,0.00,,,0.00,meteohub,2013-06-21 03:22:00,
2013-06-20 23:27:00,62.1,60.3,30.30,SW,222,7.0,12.0,94,0.00,,,0.00,meteohub,2013-06-21 03:27:00,
2013-06-20 23:32:00,62.1,60.3,30.30,SSW,211,8.0,12.0,94,0.00,,,0.00,meteohub,2013-06-21 03:32:00,
2013-06-20 23:37:00,62.1,60.3,30.30,West,267,7.0,12.0,94,0.00,,,0.00,meteohub,2013-06-21 03:37:00,
2013-06-20 23:42:00,62.1,60.3,30.30,SSW,212,7.0,11.0,94,0.00,,,0.00,meteohub,2013-06-21 03:42:00,
2013-06-20 23:47:00,62.1,60.3,30.30,SW,225,8.0,12.0,94,0.00,,,0.00,meteohub,2013-06-21 03:47:00,
2013-06-20 23:52:00,62.1,60.3,30.30,SW,214,5.0,12.0,94,0.00,,,0.00,meteohub,2013-06-21 03:52:00,
2013-06-20 23:57:00,62.1,60.3,30.30,SW,215,9.0,12.0,94,0.00,,,0.00,meteohub,2013-06-21 03:57:00,